Flag for U.S.A. Weather past 2 weeks in Key West, Florida, U.S.A.

Now
83 °F

Sunny.


Feels Like: 85 °F
Forecast: 78 / 86 °F
Wind: 17 mph from East

Location: Key West International Airport

Current Time: May 28, 2015 at 7:05:52 PM

Latest Report: May 28, 2015 at 5:53 PM


Visibility: 10 mi

Pressure: 30.02 "Hg

Humidity: 55%

Dew point: 65 °F

Location of Key WestLocation

Historic Weather in Key West — Graph

°F

Key West temperature yesterday

Maximum temperature yesterday: 87 °F (at 2:53 PM)
Minimum temperature yesterday: 78 °F (at 12:53 AM)
Average temperature yesterday: 82 °F

Past Weeks' High & Low Weather Summary

 TemperatureHumidityPressure
High89 °F (May 20, 4:53 PM)97% (May 19, 2:00 AM)30.19 "Hg (May 19, 2:00 AM)
Low73 °F (May 19, 2:00 AM)50% (May 28, 4:53 PM)29.95 "Hg (May 20, 6:53 PM)
Average82 °F72%30.08 "Hg
* Reported May 13 4:53 PM — May 28 4:53 PM, Key West, Weather by CustomWeather, © 2015

Note: Actual official high and low records may vary slightly from our data, if they occured in-between our weather recording intervals... More about our weather records

Advertising

Key West weather history for previous 24 hours

 ConditionsComfort  
Time TempWeatherWind HumidityBarometerVisibility
4:53 PM
Thu, May 28
85 °FSunny.16 mph50%30.03 "Hg10 mi
3:53 PM84 °FSunny.15 mph55%30.04 "Hg10 mi
2:53 PM85 °FSunny.16 mph53%30.06 "Hg10 mi
1:53 PM85 °FSunny.16 mph53%30.06 "Hg10 mi
12:53 PM85 °FSunny.17 mph53%30.08 "Hg10 mi
11:53 AM84 °FScattered clouds.12 mph57%30.08 "Hg10 mi
10:53 AM82 °FPartly sunny.8 mph58%30.07 "Hg10 mi
9:53 AM81 °FPartly sunny.9 mph56%30.07 "Hg10 mi
8:53 AM81 °FSunny.10 mph58%30.06 "Hg10 mi
7:53 AM79 °FSunny.12 mph69%30.05 "Hg10 mi
6:53 AM78 °FClear.9 mph69%30.04 "Hg10 mi
5:53 AM79 °FClear.10 mph67%30.03 "Hg10 mi
4:53 AM79 °FPassing clouds.10 mph69%30.02 "Hg10 mi
3:53 AM79 °FPassing clouds.9 mph69%30.02 "Hg10 mi
2:53 AM80 °FPassing clouds.13 mph69%30.03 "Hg10 mi
1:53 AM79 °FPassing clouds.12 mph72%30.04 "Hg10 mi
12:53 AM80 °FPassing clouds.10 mph69%30.07 "Hg10 mi
11:53 PM
Wed, May 27
80 °FPassing clouds.13 mph69%30.07 "Hg10 mi
10:53 PM80 °FPassing clouds.10 mph69%30.07 "Hg10 mi
9:53 PM81 °FClear.16 mph69%30.07 "Hg10 mi
8:53 PM81 °FPassing clouds.15 mph69%30.06 "Hg10 mi
7:53 PM81 °FPassing clouds.17 mph72%30.05 "Hg10 mi
Weather by CustomWeather, © 2015

See weather overviewHow to use our weather pages